Walhalla, ND

6:23 AM CDT on August 25, 2016 (GMT -0500)
Walhalla

Weather History for K96D - June, 2013

Change the Weather History Date:

Tuesday, June 11, 2013

  Actual Average (KGAF) Record (KGAF)
Temperature  
Mean Temperature 64 °F -  
Max Temperature 77 °F 79 °F 98 °F (1976)
Min Temperature 51 °F 53 °F 33 °F (1969)
Degree Days  
Heating Degree Days 1    
Growing Degree Days 14 (Base 50)    
Moisture  
Dew Point 49 °F    
Average Humidity 52    
Maximum Humidity 100    
Minimum Humidity 32    
Precipitation  
Precipitation 0.00 in - - ()
Sea Level Pressure  
Sea Level Pressure 29.87 in    
Wind  
Wind Speed 7 mph (NW)    
Max Wind Speed 16 mph    
Max Gust Speed 21 mph    
Visibility 10 miles    
Events      
Averages and records for this station are not official NWS values.
T = Trace of Precipitation, MM = Missing Value Source: NWS Daily Summary

Daily Weather History Graph

Daily Weather History Graph

Search for Another Location

Airport or City:

Trip Planner

Search our weather history database for the weather conditions in past years. The results will help you decide how hot, cold, wet, or windy it might be!

Date:

Astronomy

Jun. 11, 2013 Rise Set
Actual Time 5:27 AM CDT 9:35 PM CDT
Civil Twilight 4:45 AM CDT 10:17 PM CDT
Nautical Twilight 3:45 AM CDT 11:17 PM CDT
Astronomical Twilight 2:03 AM CDT 12:59 AM CDT
Moon 8:23 AM CDT (6/11) 11:24 PM CDT (6/11)
Length of Visible Light 17h 32m
Length of Day
16h 07m
Waxing Crescent, 8% of the Moon is Illuminated
Jun 11
Waxing Crescent
Jun 16
First Quarter
Jun 23
Full
Jun 29
Last Quarter
Jul 8
New

Hourly Weather History & Observations

Time (CDT) Temp. Dew Point Humidity Pressure Visibility Wind Dir Wind Speed Gust Speed Precip Events Conditions
12:15 AM 55.4 °F 53.6 °F 94% 29.83 in 10.0 mi West 3.5 mph - N/A   Clear
12:35 AM 53.6 °F 53.6 °F 100% 29.84 in 10.0 mi Calm Calm - N/A   Clear
12:55 AM 53.6 °F 53.6 °F 100% 29.84 in 10.0 mi Calm Calm - N/A   Clear
1:15 AM 53.6 °F 53.6 °F 100% 29.85 in 10.0 mi Calm Calm - N/A   Clear
1:35 AM 51.8 °F 51.8 °F 100% 29.84 in 10.0 mi SW 3.5 mph - N/A   Clear
1:55 AM 51.8 °F 51.8 °F 100% 29.85 in 10.0 mi WSW 3.5 mph - N/A   Partly Cloudy
2:15 AM 51.8 °F 51.8 °F 100% 29.86 in 10.0 mi Calm Calm - N/A   Partly Cloudy
1:15 PM 75.2 °F 46.4 °F 36% 29.88 in 10.0 mi WNW 11.5 mph 18.4 mph N/A   Scattered Clouds
1:35 PM 75.2 °F 46.4 °F 36% 29.88 in 10.0 mi West 9.2 mph 19.6 mph N/A   Partly Cloudy
1:55 PM 75.2 °F 48.2 °F 38% 29.88 in 10.0 mi WNW 11.5 mph 18.4 mph N/A   Partly Cloudy
2:15 PM 77.0 °F 48.2 °F 36% 29.87 in 10.0 mi WNW 11.5 mph 17.3 mph N/A   Clear
2:35 PM 77.0 °F 46.4 °F 34% 29.87 in 10.0 mi WNW 11.5 mph 20.7 mph N/A   Partly Cloudy
2:55 PM 77.0 °F 46.4 °F 34% 29.87 in 10.0 mi WNW 9.2 mph 19.6 mph N/A   Clear
3:15 PM 77.0 °F 46.4 °F 34% 29.87 in 10.0 mi NW 16.1 mph - N/A   Clear
3:35 PM 77.0 °F 46.4 °F 34% 29.87 in 10.0 mi NW 11.5 mph 16.1 mph N/A   Clear
3:55 PM 77.0 °F 46.4 °F 34% 29.86 in 10.0 mi NW 13.8 mph 19.6 mph N/A   Clear
4:15 PM 77.0 °F 48.2 °F 36% 29.87 in 10.0 mi NW 12.7 mph 19.6 mph N/A   Clear
4:35 PM 77.0 °F 46.4 °F 34% 29.86 in 10.0 mi NW 15.0 mph - N/A   Clear
4:55 PM 77.0 °F 44.6 °F 32% 29.86 in 10.0 mi WNW 10.4 mph 18.4 mph N/A   Clear
5:15 PM 77.0 °F 46.4 °F 34% 29.86 in 10.0 mi WNW 10.4 mph 18.4 mph N/A   Clear
5:35 PM 77.0 °F 44.6 °F 32% 29.86 in 10.0 mi WNW 15.0 mph 20.7 mph N/A   Clear
5:55 PM 77.0 °F 46.4 °F 34% 29.86 in 10.0 mi WNW 11.5 mph 19.6 mph N/A   Clear
6:15 PM 77.0 °F 46.4 °F 34% 29.86 in 10.0 mi NW 11.5 mph 17.3 mph N/A   Clear
6:35 PM 77.0 °F 46.4 °F 34% 29.86 in 10.0 mi NW 9.2 mph 17.3 mph N/A   Clear
6:55 PM 77.0 °F 48.2 °F 36% 29.86 in 10.0 mi NNW 13.8 mph 18.4 mph N/A   Clear
7:15 PM 75.2 °F 48.2 °F 38% 29.86 in 10.0 mi NW 11.5 mph 17.3 mph N/A   Clear
7:35 PM 75.2 °F 48.2 °F 38% 29.86 in 10.0 mi NW 13.8 mph - N/A   Clear
7:55 PM 75.2 °F 48.2 °F 38% 29.86 in 10.0 mi NW 8.1 mph - N/A   Clear
8:15 PM 73.4 °F 48.2 °F 41% 29.86 in 10.0 mi NNW 10.4 mph - N/A   Clear
8:35 PM 73.4 °F 48.2 °F 41% 29.86 in 10.0 mi NNW 9.2 mph - N/A   Clear
8:55 PM 71.6 °F 50.0 °F 46% 29.86 in 10.0 mi NNW 5.8 mph - N/A   Clear
9:15 PM 71.6 °F 50.0 °F 46% 29.87 in 10.0 mi NW 4.6 mph - N/A   Clear
9:35 PM 68.0 °F 50.0 °F 52% 29.87 in 10.0 mi NW 3.5 mph - N/A   Clear
9:55 PM 68.0 °F 50.0 °F 52% 29.89 in 10.0 mi NW 4.6 mph - N/A   Clear
10:15 PM 66.2 °F 50.0 °F 56% 29.90 in 10.0 mi NW 5.8 mph - N/A   Clear
10:35 PM 66.2 °F 53.6 °F 64% 29.90 in 10.0 mi NW 3.5 mph - N/A   Clear
10:55 PM 64.4 °F 50.0 °F 59% 29.90 in 10.0 mi NW 3.5 mph - N/A   Clear
11:15 PM 64.4 °F 51.8 °F 64% 29.91 in 10.0 mi Calm Calm - N/A   Partly Cloudy
11:35 PM 62.6 °F 53.6 °F 72% 29.91 in 10.0 mi NNW 5.8 mph - N/A   Clear
11:55 PM 62.6 °F 50.0 °F 63% 29.91 in 10.0 mi NW 6.9 mph - N/A   Clear